Regional Weather Roundup
Issued by NWS Goodland, KS

Home | Current Version | Previous Version | Text Only | Print | Product List | Glossary On
Versions: 1 2 3 4 5 6 7 8 9 10 11 12 13 14 15 16 17 18 19 20 21 22 23 24 25 26 27 28 29 30 31 32 33 34 35 36 37 38 39 40 41 42 43 44 45 46 47 48 49 50
114
ASUS43 KGLD 290408
RWRGLD

GOODLAND FORECAST AREA HOURLY WEATHER ROUNDUP
NATIONAL WEATHER SERVICE GOODLAND KS
1000 PM MDT TUE MAR 28 2017

...OFFICIAL OBSERVATIONS...

CITY           SKY/WX    TMP DP  RH WIND       PRES   REMARKS
GOODLAND KS    LGT RAIN  39  39 100 NE14      29.98R FOG
HILL CITY KS   LGT RAIN  45  44  97 NE15      30.01R FOG
IMPERIAL NEB   LGT RAIN  42  40  92 NE14      30.06R FOG
MCCOOK NEB     CLOUDY    43  42  97 NE14      30.03R FOG
AKRON CO       LGT RAIN  37  36  96 NE10      30.03R
BURLINGTON CO  CLOUDY    39  39 100 NE16      29.99R
LIMON CO       LGT RAIN  37  37 100 E8        29.97S
$$

...UNOFFICIAL OBSERVATIONS...

CITY           SKY/WX    TMP DP  RH WIND       PRES   REMARKS
NORTON KS      CLOUDY    43  39  87 NE17G25   30.01  FOG
SHARON SPRINGS   N/A     40  39  96 NE14G21     N/A
TRENTON NEB      N/A     42  32  68 E9          N/A
KIT CARSON CO    N/A     39  36  90 MISG        N/A
YUMA CO        DRIZZLE   36  36 100 NE9       30.03R
$$




USA.gov is the U.S. government's official web portal to all federal, state and local government web resources and services.